Location: Bidwell Hollow
(37.7387°N, 90.1707°W)
Time: 01:28:56
(UTC+00:00)

Vanguard 3 - Pass Details

Date: 13 May 2026
Orbit: 507 x 3204 km, 33.3° (Epoch: 6 June)

Event Time Altitude Azimuth Distance (km) Brightness Sun altitude
Rises 21:16:41 0° 254° (WSW) 6,960 12.7 42.7°
Reaches altitude 10° 21:21:11 10° 253° (WSW) 6,062 12.7 41.8°
Maximum altitude 21:40:53 75° 173° (S) 3,044 10.7 37.9°
Drops below altitude 10° 21:55:48 10° 92° (E) 4,771 10.7 35.0°
Sets 21:58:53 0° 90° (E) 5,477 10.9 34.4°
